Location: Hannover
(52.3723°N, 9.7339°E)
Time: 00:17:17
(UTC+01:00)

ISS - Pass Details

Date: 12 January 2018
Orbit: 401 x 406 km, 51.6° (Epoch: 17 January)

Event Time Altitude Azimuth Distance (km) Brightness Sun altitude
Exits shadow 06:24:54 28° 215° (SW) 800 -2.6 -17.6°
Maximum altitude 06:25:03 28° 209° (SSW) 797 -2.5 -17.6°
Drops below altitude 10° 06:27:55 10° 148° (SSE) 1,461 -0.4 -17.2°
Sets 06:30:09 0° 137° (SE) 2,319 1.0 -16.9°
